カタログに戻る

STARLINK-37112

運用中通信VLEO
NORAD 68707·PAYLOAD·🇺🇸 United States

打ち上げ Apr 14, 2026 から Cape Canaveral Space Force Station

Loading…

次のパス (今後24時間)

TLE

最新Source: CelesTrak SupGP

元期: Sep 14, 2026, 22:43 UTC

1 68707C 26081J   26257.94701389  .00024984  00000+0  73807-3 0  2579
2 68707  53.1576 231.8715 0001281  96.0274 255.6581 15.34381726    17

AllMySatでSTARLINK-37112をリアルタイム追跡

Download on the App Store